Radiation Dose at Monitoring Post of Fukushima Daini Nuclear Power Station
Date,Time,MP-1(microSv/h),MP-2(microSv/h),MP-3(microSv/h),MP-4(microSv/h),MP-5(microSv/h),MP-6(microSv/h),MP-7(microSv/h),Wind Direction,Wind Velocity(m/s),Rain
2015/11/05,00:00,0.500,0.281,0.514,0.474,0.449,0.230,0.199,southwest,4.5,No
2015/11/05,00:10,0.497,0.280,0.513,0.471,0.447,0.231,0.199,west-southwest,3.3,No
2015/11/05,00:20,0.500,0.279,0.515,0.473,0.447,0.231,0.200,west,2.0,No
2015/11/05,00:30,0.499,0.281,0.515,0.474,0.448,0.230,0.200,west,1.7,No
2015/11/05,00:40,0.498,0.280,0.512,0.472,0.446,0.230,0.200,west,2.2,No
2015/11/05,00:50,0.500,0.279,0.517,0.474,0.448,0.230,0.201,west-southwest,3.1,No
2015/11/05,01:00,0.498,0.281,0.513,0.472,0.447,0.231,0.200,west-southwest,3.3,No
2015/11/05,01:10,0.499,0.278,0.516,0.472,0.445,0.230,0.201,west-southwest,4.0,No
2015/11/05,01:20,0.500,0.279,0.516,0.475,0.447,0.230,0.200,west-southwest,3.5,No
2015/11/05,01:30,0.498,0.280,0.513,0.472,0.446,0.230,0.200,west-southwest,3.6,No
2015/11/05,01:40,0.500,0.281,0.517,0.473,0.447,0.231,0.199,west-southwest,3.9,No
2015/11/05,01:50,0.500,0.279,0.514,0.473,0.448,0.231,0.199,southwest,4.5,No
2015/11/05,02:00,0.497,0.281,0.512,0.474,0.447,0.231,0.201,southwest,4.2,No
2015/11/05,02:10,0.501,0.278,0.518,0.473,0.447,0.230,0.200,southwest,5.0,No
2015/11/05,02:20,0.499,0.278,0.513,0.474,0.448,0.230,0.202,southwest,4.3,No
2015/11/05,02:30,0.497,0.281,0.516,0.473,0.445,0.231,0.200,southwest,4.7,No
2015/11/05,02:40,0.501,0.279,0.515,0.475,0.448,0.231,0.201,southwest,4.8,No
2015/11/05,02:50,0.497,0.279,0.514,0.472,0.446,0.232,0.200,southwest,5.0,No
2015/11/05,03:00,0.497,0.280,0.516,0.471,0.446,0.230,0.201,southwest,5.2,No
2015/11/05,03:10,0.499,0.279,0.512,0.476,0.448,0.231,0.200,southwest,5.2,No
2015/11/05,03:20,0.498,0.279,0.514,0.473,0.447,0.231,0.200,southwest,6.1,No
2015/11/05,03:30,0.500,0.278,0.514,0.473,0.445,0.231,0.201,southwest,6.7,No
2015/11/05,03:40,0.499,0.280,0.512,0.476,0.449,0.231,0.202,southwest,5.6,No
2015/11/05,03:50,0.498,0.279,0.519,0.472,0.446,0.230,0.200,southwest,5.1,No
2015/11/05,04:00,0.501,0.280,0.514,0.472,0.448,0.231,0.201,southwest,2.8,No
2015/11/05,04:10,0.498,0.280,0.515,0.475,0.447,0.232,0.201,west-southwest,2.5,No
2015/11/05,04:20,0.500,0.278,0.517,0.471,0.447,0.231,0.201,west-southwest,2.8,No
2015/11/05,04:30,0.501,0.280,0.513,0.474,0.447,0.230,0.199,west-southwest,1.7,No
2015/11/05,04:40,0.499,0.280,0.516,0.473,0.447,0.231,0.200,-,CALM,No
2015/11/05,04:50,0.497,0.280,0.516,0.472,0.445,0.231,0.199,west-southwest,1.3,No
2015/11/05,05:00,0.501,0.280,0.512,0.476,0.447,0.230,0.200,west-southwest,1.9,No
2015/11/05,05:10,0.499,0.279,0.515,0.474,0.449,0.231,0.201,west-southwest,2.7,No
2015/11/05,05:20,0.499,0.280,0.515,0.472,0.446,0.230,0.201,west-southwest,3.5,No
2015/11/05,05:30,0.498,0.280,0.514,0.473,0.446,0.231,0.200,southwest,4.4,No
2015/11/05,05:40,0.498,0.279,0.516,0.473,0.447,0.231,0.200,southwest,4.3,No
2015/11/05,05:50,0.500,0.280,0.514,0.472,0.446,0.231,0.201,southwest,3.8,No
2015/11/05,06:00,0.499,0.279,0.515,0.474,0.447,0.231,0.200,south-southwest,3.7,No
2015/11/05,06:10,0.497,0.280,0.516,0.473,0.447,0.230,0.200,south-southwest,3.1,No
2015/11/05,06:20,0.501,0.280,0.514,0.472,0.445,0.231,0.202,south-southwest,2.9,No
2015/11/05,06:30,0.498,0.280,0.515,0.473,0.447,0.231,0.200,southwest,2.8,No
2015/11/05,06:40,0.498,0.279,0.515,0.473,0.448,0.231,0.200,southwest,2.8,No
2015/11/05,06:50,0.501,0.279,0.514,0.473,0.444,0.231,0.200,southwest,2.5,No
2015/11/05,07:00,0.498,0.280,0.515,0.474,0.447,0.230,0.199,south-southwest,2.5,No
2015/11/05,07:10,0.499,0.279,0.513,0.472,0.449,0.230,0.199,south-southwest,2.4,No
2015/11/05,07:20,0.500,0.279,0.515,0.472,0.445,0.230,0.199,south-southwest,2.7,No
2015/11/05,07:30,0.498,0.280,0.514,0.475,0.449,0.231,0.199,south-southwest,2.5,No
2015/11/05,07:40,0.500,0.279,0.516,0.469,0.447,0.231,0.199,south,1.8,No
2015/11/05,07:50,0.498,0.279,0.513,0.473,0.448,0.231,0.200,south,1.2,No
2015/11/05,08:00,0.498,0.281,0.516,0.470,0.446,0.231,0.200,south-southwest,1.7,No
2015/11/05,08:10,0.500,0.280,0.513,0.475,0.447,0.230,0.199,south-southwest,2.1,No
2015/11/05,08:20,0.498,0.280,0.516,0.471,0.450,0.231,0.201,south,2.3,No
2015/11/05,08:30,0.496,0.282,0.515,0.474,0.447,0.232,0.199,south,1.6,No
2015/11/05,08:40,0.501,0.280,0.512,0.471,0.450,0.231,0.200,southeast,0.7,No
2015/11/05,08:50,0.497,0.281,0.515,0.474,0.448,0.231,0.201,south-southeast,0.7,No
2015/11/05,09:00,0.501,0.278,0.515,0.468,0.451,0.230,0.200,-,CALM,No
2015/11/05,09:10,0.499,0.280,0.514,0.474,0.448,0.231,0.201,southeast,0.7,No
2015/11/05,09:20,0.500,0.279,0.517,0.471,0.450,0.230,0.200,south-southeast,1.0,No
2015/11/05,09:30,0.494,0.281,0.515,0.471,0.446,0.232,0.199,southeast,1.0,No
2015/11/05,09:40,0.497,0.278,0.519,0.474,0.449,0.229,0.202,southeast,0.8,No
2015/11/05,09:50,0.494,0.279,0.512,0.469,0.444,0.232,0.200,east-southeast,0.9,No
2015/11/05,10:00,0.494,0.279,0.517,0.473,0.445,0.231,0.200,east-southeast,0.5,No
2015/11/05,10:10,0.497,0.278,0.513,0.475,0.450,0.231,0.201,east,0.8,No
2015/11/05,10:20,0.497,0.281,0.516,0.470,0.446,0.232,0.202,east-northeast,1.4,No
2015/11/05,10:30,0.497,0.279,0.512,0.475,0.445,0.230,0.200,northeast,0.9,No
2015/11/05,10:40,0.501,0.278,0.515,0.472,0.450,0.231,0.202,east-northeast,1.3,No
2015/11/05,10:50,0.494,0.281,0.514,0.469,0.447,0.232,0.201,northeast,1.9,No
2015/11/05,11:00,0.498,0.280,0.518,0.468,0.445,0.230,0.200,east-northeast,1.6,No
2015/11/05,11:10,0.501,0.278,0.510,0.475,0.449,0.232,0.200,east-northeast,1.2,No
2015/11/05,11:20,0.496,0.282,0.518,0.474,0.451,0.231,0.201,northeast,1.4,No
2015/11/05,11:30,0.498,0.280,0.512,0.469,0.446,0.232,0.200,-,CALM,No
2015/11/05,11:40,0.503,0.278,0.515,0.471,0.445,0.230,0.202,east,1.0,No
2015/11/05,11:50,0.497,0.283,0.516,0.477,0.450,0.230,0.202,east,0.9,No
2015/11/05,12:00,0.497,0.280,0.509,0.475,0.450,0.231,0.198,-,CALM,No
2015/11/05,12:10,0.504,0.280,0.510,0.471,0.447,0.231,0.201,east-southeast,0.8,No
2015/11/05,12:20,0.499,0.281,0.514,0.470,0.443,0.231,0.201,southeast,1.1,No
2015/11/05,12:30,0.504,0.279,0.511,0.473,0.452,0.231,0.200,east-southeast,2.0,No
2015/11/05,12:40,0.503,0.282,0.508,0.476,0.450,0.232,0.201,southeast,1.6,No
2015/11/05,12:50,0.502,0.282,0.511,0.472,0.446,0.232,0.202,south,4.3,No
2015/11/05,13:00,0.501,0.280,0.515,0.468,0.444,0.231,0.200,south,6.9,No
2015/11/05,13:10,0.499,0.278,0.513,0.467,0.449,0.233,0.200,south-southeast,7.5,No
2015/11/05,13:20,0.503,0.282,0.509,0.477,0.450,0.231,0.201,south,8.6,No
2015/11/05,13:30,0.497,0.280,0.509,0.476,0.447,0.231,0.201,south,8.5,No
2015/11/05,13:40,0.498,0.278,0.517,0.472,0.443,0.231,0.199,south,9.0,No
2015/11/05,13:50,0.501,0.280,0.515,0.468,0.454,0.231,0.201,south,8.6,No
2015/11/05,14:00,0.495,0.281,0.515,0.477,0.451,0.230,0.200,south,9.9,No
2015/11/05,14:10,0.504,0.279,0.519,0.477,0.449,0.232,0.202,south,9.6,No
2015/11/05,14:20,0.500,0.279,0.512,0.472,0.454,0.229,0.201,south,8.1,No
2015/11/05,14:30,0.501,0.282,0.519,0.482,0.448,0.230,0.201,south,8.4,No
2015/11/05,14:40,0.501,0.281,0.516,0.477,0.453,0.231,0.201,south,9.1,No
2015/11/05,14:50,0.500,0.281,0.515,0.476,0.450,0.231,0.201,south,7.8,No
2015/11/05,15:00,0.504,0.282,0.518,0.478,0.450,0.231,0.202,south,8.0,No
2015/11/05,15:10,0.498,0.278,0.513,0.471,0.451,0.230,0.201,south,7.5,No
2015/11/05,15:20,0.504,0.282,0.517,0.477,0.447,0.231,0.201,south,7.3,No
2015/11/05,15:30,0.499,0.280,0.514,0.475,0.452,0.230,0.202,south,7.7,No
2015/11/05,15:40,0.501,0.281,0.515,0.475,0.446,0.230,0.202,south,6.7,No
2015/11/05,15:50,0.499,0.280,0.516,0.478,0.451,0.231,0.201,south-southwest,2.2,No
2015/11/05,16:00,0.501,0.282,0.513,0.472,0.448,0.231,0.201,-,CALM,No
2015/11/05,16:10,0.502,0.279,0.518,0.478,0.450,0.231,0.201,west-northwest,0.7,No
2015/11/05,16:20,0.500,0.282,0.512,0.474,0.449,0.232,0.201,-,CALM,No
2015/11/05,16:30,0.502,0.280,0.519,0.478,0.451,0.231,0.201,north-northwest,1.3,No
2015/11/05,16:40,0.502,0.281,0.514,0.474,0.451,0.233,0.202,north-northwest,1.7,No
2015/11/05,16:50,0.501,0.280,0.518,0.478,0.451,0.232,0.202,north,1.8,No
2015/11/05,17:00,0.502,0.281,0.515,0.475,0.452,0.231,0.202,north,0.8,No
2015/11/05,17:10,0.503,0.280,0.518,0.477,0.451,0.232,0.202,west-southwest,0.6,No
2015/11/05,17:20,0.501,0.281,0.515,0.476,0.451,0.231,0.201,south-southwest,1.5,No
2015/11/05,17:30,0.501,0.282,0.519,0.478,0.452,0.232,0.202,south-southeast,1.5,No
2015/11/05,17:40,0.503,0.282,0.514,0.475,0.451,0.231,0.202,south,1.4,No
2015/11/05,17:50,0.502,0.281,0.520,0.477,0.455,0.232,0.200,south,1.3,No
2015/11/05,18:00,0.503,0.281,0.515,0.478,0.448,0.232,0.201,south,1.3,No
2015/11/05,18:10,0.499,0.282,0.518,0.475,0.453,0.232,0.202,south,1.0,No
2015/11/05,18:20,0.503,0.281,0.517,0.479,0.449,0.231,0.203,south-southwest,1.3,No
2015/11/05,18:30,0.501,0.281,0.518,0.475,0.452,0.232,0.202,south,1.8,No
2015/11/05,18:40,0.504,0.281,0.519,0.479,0.450,0.233,0.202,south,1.4,No
2015/11/05,18:50,0.501,0.281,0.516,0.475,0.450,0.232,0.202,southwest,2.2,No
2015/11/05,19:00,0.500,0.282,0.519,0.479,0.450,0.231,0.203,southwest,2.8,No
2015/11/05,19:10,0.504,0.280,0.516,0.477,0.449,0.233,0.202,southwest,2.0,No
2015/11/05,19:20,0.500,0.281,0.521,0.478,0.451,0.232,0.203,southwest,3.9,No
2015/11/05,19:30,0.504,0.281,0.515,0.477,0.448,0.232,0.202,west-southwest,3.6,No
2015/11/05,19:40,0.501,0.281,0.520,0.474,0.451,0.232,0.202,southwest,3.3,No
2015/11/05,19:50,0.505,0.281,0.516,0.477,0.449,0.233,0.202,west-southwest,2.8,No
2015/11/05,20:00,0.501,0.282,0.517,0.476,0.450,0.234,0.202,west-southwest,3.1,No
2015/11/05,20:10,0.503,0.281,0.517,0.479,0.450,0.232,0.203,west-southwest,3.2,No
2015/11/05,20:20,0.503,0.282,0.515,0.475,0.448,0.233,0.203,southwest,4.0,No
2015/11/05,20:30,0.500,0.282,0.519,0.476,0.450,0.233,0.202,southwest,5.0,No
2015/11/05,20:40,0.504,0.281,0.516,0.475,0.448,0.231,0.201,southwest,5.4,No
2015/11/05,20:50,0.498,0.283,0.520,0.477,0.450,0.234,0.202,south-southwest,5.6,No
2015/11/05,21:00,0.503,0.281,0.517,0.479,0.451,0.233,0.202,southwest,4.5,No
2015/11/05,21:10,0.500,0.282,0.519,0.474,0.450,0.233,0.201,southwest,3.7,No
2015/11/05,21:20,0.502,0.281,0.517,0.479,0.450,0.232,0.203,southwest,2.7,No
2015/11/05,21:30,0.500,0.281,0.515,0.476,0.449,0.232,0.202,southwest,2.3,No
2015/11/05,21:40,0.501,0.282,0.518,0.476,0.451,0.233,0.202,south-southwest,1.2,No
2015/11/05,21:50,0.503,0.281,0.514,0.478,0.448,0.233,0.202,southwest,1.4,No
2015/11/05,22:00,0.498,0.282,0.519,0.476,0.451,0.231,0.202,southwest,1.1,No
2015/11/05,22:10,0.503,0.282,0.515,0.476,0.449,0.234,0.203,-,CALM,No
2015/11/05,22:20,0.500,0.280,0.516,0.476,0.449,0.232,0.203,west-northwest,1.4,No
2015/11/05,22:30,0.502,0.283,0.516,0.478,0.450,0.233,0.203,west,3.1,No
2015/11/05,22:40,0.501,0.281,0.516,0.476,0.448,0.231,0.202,west,3.3,No
2015/11/05,22:50,0.501,0.281,0.519,0.477,0.451,0.232,0.202,west,2.2,No
2015/11/05,23:00,0.503,0.281,0.516,0.475,0.448,0.232,0.201,west,1.0,No
2015/11/05,23:10,0.502,0.281,0.519,0.476,0.448,0.232,0.202,west-northwest,0.9,No
2015/11/05,23:20,0.502,0.281,0.517,0.477,0.450,0.232,0.203,west,1.1,No
2015/11/05,23:30,0.502,0.282,0.518,0.475,0.448,0.231,0.203,west-northwest,1.0,No
2015/11/05,23:40,0.500,0.280,0.517,0.476,0.449,0.231,0.201,west-northwest,0.8,No
2015/11/05,23:50,0.502,0.281,0.517,0.476,0.448,0.232,0.202,west,1.2,No
